Norfolk Island's weather forecast for the week

Aktuelles Wetter in Norfolk Island

Wetter

Bewölkt
Bewölkung 78%

Temperatur

20°C
Minimum 20°C
Maximum 21°C

Wind

17 km/h
Windböen 20 km/h

Feuchtigeit

63%
Taupunkt 13°C
Temperatur Fühlt sich Niederschlag Feuchtigkeit
00:00am Stellenweise Regen möglich 20°C 20°C 0.2 mm 65%
03:00am Bewölkt 20°C 20°C 0 mm 64%
06:00am Teilweise bewölkt 21°C 20°C 0 mm 62%
09:00am Bewölkt 20°C 20°C 0 mm 63%
12:00pm Bedeckt 20°C 20°C 0 mm 64%
15:00pm Bedeckt 20°C 20°C 0 mm 64%
18:00pm Bedeckt 21°C 21°C 0 mm 65%
21:00pm Bedeckt 21°C 21°C 0 mm 65%
Temperatur Fühlt sich Niederschlag Feuchtigkeit
00:00am Bewölkt 20°C 20°C 0 mm 63%
03:00am Teilweise bewölkt 20°C 20°C 0 mm 62%
06:00am Teilweise bewölkt 21°C 21°C 0 mm 60%
09:00am Teilweise bewölkt 21°C 21°C 0 mm 59%
12:00pm Teilweise bewölkt 21°C 21°C 0 mm 63%
15:00pm Bedeckt 21°C 21°C 0 mm 69%
18:00pm Stellenweise Regen möglich 21°C 21°C 0.1 mm 69%
21:00pm Bewölkt 21°C 21°C 0 mm 63%
Temperatur Fühlt sich Niederschlag Feuchtigkeit
00:00am Teilweise bewölkt 21°C 21°C 0 mm 59%
03:00am Teilweise bewölkt 20°C 20°C 0 mm 59%
06:00am Teilweise bewölkt 20°C 20°C 0 mm 60%
09:00am Teilweise bewölkt 20°C 20°C 0 mm 60%
12:00pm Bewölkt 21°C 21°C 0 mm 62%
15:00pm Bewölkt 21°C 21°C 0 mm 71%
18:00pm Leichter Regen 20°C 20°C 1.1 mm 77%
21:00pm Mäßiger oder starker Regen 20°C 20°C 3 mm 77%
Temperatur Fühlt sich Niederschlag Feuchtigkeit
00:00am Leichter Regen 19°C 19°C 0.5 mm 76%
03:00am Leichter Regen 19°C 19°C 0.6 mm 72%
06:00am Stellenweise Regen möglich 20°C 19°C 0.1 mm 71%
09:00am Stellenweise Regen möglich 19°C 19°C 0.1 mm 66%
12:00pm Teilweise bewölkt 20°C 20°C 0 mm 61%
15:00pm Bewölkt 20°C 20°C 0 mm 70%
18:00pm Leichter Regen 20°C 20°C 0.5 mm 70%
21:00pm Leichter Regen 20°C 20°C 0.8 mm 67%
Temperatur Fühlt sich Niederschlag Feuchtigkeit
00:00am Leichter Regen 21°C 21°C 0.2 mm 64%
03:00am Teilweise bewölkt 21°C 21°C 0 mm 71%
06:00am Stellenweise Regen möglich 21°C 21°C 1.1 mm 73%
09:00am Leichter Regen 21°C 21°C 0.9 mm 70%
12:00pm Teilweise bewölkt 21°C 21°C 0 mm 71%
15:00pm Stellenweise Regen möglich 21°C 21°C 0.2 mm 74%
18:00pm Leichter Regen 21°C 21°C 0.9 mm 75%
21:00pm Stellenweise Regen möglich 21°C 21°C 2.1 mm 74%
Temperatur Fühlt sich Niederschlag Feuchtigkeit
00:00am Stellenweise Regen möglich 21°C 21°C 0.2 mm 72%
03:00am Stellenweise Regen möglich 21°C 21°C 0.3 mm 72%
06:00am Teilweise bewölkt 21°C 21°C 0 mm 74%
09:00am Teilweise bewölkt 21°C 21°C 0 mm 74%
12:00pm Teilweise bewölkt 21°C 21°C 0 mm 73%
15:00pm Teilweise bewölkt 21°C 21°C 0 mm 76%
18:00pm Bewölkt 21°C 21°C 0 mm 78%
21:00pm Teilweise bewölkt 21°C 21°C 0 mm 78%
Temperatur Fühlt sich Niederschlag Feuchtigkeit
00:00am Leichter Regen 21°C 21°C 1.9 mm 79%
03:00am Teilweise bewölkt 21°C 21°C 0 mm 79%
06:00am Leichter Regen 22°C 21°C 1.2 mm 78%
09:00am Leichter Regen 21°C 21°C 2.1 mm 80%
12:00pm Leichter Regen 21°C 21°C 0.9 mm 79%
15:00pm Teilweise bewölkt 21°C 21°C 0 mm 78%
18:00pm Leichter Regen 22°C 22°C 0.6 mm 76%
21:00pm Teilweise bewölkt 22°C 22°C 0 mm 78%

Speichern Sie Ihre Lieblingsorte, erhalten Sie noch mehr Gezeiteninformationen, weniger Werbung und mehr ...

Loggen Sie sich mit Ihrem Facebook-Konto bei Tidechart mit einem Klick ein (KOSTENLOS!)